• In Hungary
  • List of Countries
  • For 7 days
  • Water Temperature
  • Satellite Maps
  • Weather Map
  • News
  • Weather Widgets
  • user-avatar
    Login

    Hourly Weather Przemilow

    Today, 18 June, Monday

    Time Temperature Precipitation Wind Pressure Humidity
    00:00 +18°C° 0.4 mm 3 mps 740 mmHg 86%
    01:00 +17°C° 0 mm 3 mps 740 mmHg 93%
    02:00 +16°C° 0.1 mm 3 mps 740 mmHg 94%
    03:00 +16°C° 0.1 mm 3 mps 740 mmHg 95%
    04:00 +14°C° 0.1 mm 3 mps 740 mmHg 96%
    05:00 +16°C° 0 mm 3 mps 741 mmHg 92%
    06:00 +18°C° 0 mm 3 mps 741 mmHg 88%
    07:00 +19°C° 0 mm 3 mps 742 mmHg 84%
    08:00 +20°C° 0 mm 4 mps 742 mmHg 77%
    09:00 +21°C° 0 mm 4 mps 742 mmHg 69%
    10:00 +23°C° 0 mm 4 mps 742 mmHg 62%
    11:00 +23°C° 0 mm 4 mps 742 mmHg 59%
    12:00 +25°C° 0 mm 4 mps 742 mmHg 56%
    13:00 +25°C° 0 mm 4 mps 742 mmHg 54%
    14:00 +25°C° 0 mm 4 mps 742 mmHg 55%
    15:00 +25°C° 0 mm 4 mps 742 mmHg 56%
    16:00 +25°C° 0 mm 4 mps 742 mmHg 57%
    17:00 +24°C° 0 mm 3 mps 742 mmHg 62%
    18:00 +22°C° 0 mm 3 mps 742 mmHg 67%
    19:00 +21°C° 0 mm 2 mps 742 mmHg 72%
    20:00 +19°C° 0 mm 2 mps 743 mmHg 74%
    21:00 +18°C° 0 mm 2 mps 743 mmHg 77%
    22:00 +18°C° 0 mm 1 mps 743 mmHg 79%
    23:00 +16°C° 0 mm 1 mps 743 mmHg 80%

    Tomorrow, 19 June, Tuesday

    Time Temperature Precipitation Wind Pressure Humidity
    00:00 +16°C° 0 mm 1 mps 743 mmHg 81%
    01:00 +15°C° 0 mm 2 mps 743 mmHg 81%
    02:00 +15°C° 0 mm 1 mps 743 mmHg 82%
    03:00 +15°C° 0 mm 1 mps 743 mmHg 83%
    04:00 +14°C° 0 mm 1 mps 743 mmHg 84%
    05:00 +16°C° 0 mm 1 mps 744 mmHg 79%
    06:00 +19°C° 0 mm 1 mps 744 mmHg 74%
    07:00 +20°C° 0 mm 2 mps 744 mmHg 69%
    08:00 +21°C° 0 mm 2 mps 744 mmHg 66%
    09:00 +23°C° 0 mm 2 mps 744 mmHg 63%
    10:00 +24°C° 0 mm 2 mps 744 mmHg 59%
    11:00 +25°C° 0.1 mm 2 mps 744 mmHg 59%
    12:00 +25°C° 0.1 mm 2 mps 744 mmHg 59%
    13:00 +25°C° 0.1 mm 2 mps 744 mmHg 59%
    14:00 +26°C° 0.1 mm 3 mps 744 mmHg 60%
    15:00 +26°C° 0.1 mm 3 mps 744 mmHg 60%
    16:00 +26°C° 0.1 mm 3 mps 743 mmHg 61%
    17:00 +25°C° 0 mm 2 mps 744 mmHg 65%
    18:00 +24°C° 0 mm 2 mps 744 mmHg 69%
    19:00 +23°C° 0 mm 1 mps 744 mmHg 73%
    20:00 +22°C° 0 mm 1 mps 744 mmHg 75%
    21:00 +21°C° 0 mm 1 mps 744 mmHg 78%
    22:00 +19°C° 0 mm 1 mps 744 mmHg 80%
    23:00 +19°C° 0 mm 1 mps 744 mmHg 81%

    Day after tomorrow, 20 June, Wednesday

    Time Temperature Precipitation Wind Pressure Humidity
    00:00 +17°C° 0 mm 2 mps 745 mmHg 83%
    01:00 +17°C° 0 mm 2 mps 745 mmHg 84%
    02:00 +16°C° 0 mm 2 mps 745 mmHg 87%
    03:00 +16°C° 0 mm 2 mps 745 mmHg 89%
    04:00 +15°C° 0 mm 2 mps 745 mmHg 92%
    05:00 +17°C° 0 mm 2 mps 745 mmHg 88%
    06:00 +19°C° 0 mm 1 mps 745 mmHg 84%
    07:00 +21°C° 0 mm 1 mps 746 mmHg 79%
    08:00 +21°C° 0 mm 2 mps 746 mmHg 75%
    09:00 +24°C° 0 mm 2 mps 745 mmHg 70%
    10:00 +25°C° 0 mm 2 mps 745 mmHg 65%
    11:00 +25°C° 0.1 mm 2 mps 745 mmHg 62%
    12:00 +26°C° 0.1 mm 1 mps 745 mmHg 60%
    13:00 +27°C° 0.1 mm 1 mps 745 mmHg 58%
    14:00 +27°C° 0 mm 1 mps 744 mmHg 57%
    15:00 +27°C° 0 mm 1 mps 744 mmHg 57%
    16:00 +27°C° 0 mm 1 mps 744 mmHg 57%
    17:00 +26°C° 0 mm 1 mps 743 mmHg 62%
    18:00 +25°C° 0 mm 1 mps 743 mmHg 67%
    19:00 +25°C° 0 mm 1 mps 743 mmHg 72%
    20:00 +23°C° 0 mm 1 mps 743 mmHg 76%
    21:00 +22°C° 0 mm 1 mps 743 mmHg 79%
    22:00 +20°C° 0 mm 1 mps 743 mmHg 83%
    23:00 +20°C° 0 mm 1 mps 742 mmHg 84%

    21 June, Thursday

    Time Temperature Precipitation Wind Pressure Humidity
    00:00 +20°C° 0 mm 1 mps 742 mmHg 86%
    01:00 +19°C° 0 mm 1 mps 742 mmHg 87%
    02:00 +19°C° 0 mm 1 mps 741 mmHg 87%
    03:00 +19°C° 0 mm 1 mps 741 mmHg 88%
    04:00 +19°C° 0 mm 1 mps 740 mmHg 89%
    05:00 +20°C° 0 mm 1 mps 740 mmHg 83%
    06:00 +21°C° 0 mm 2 mps 740 mmHg 77%
    07:00 +24°C° 0 mm 2 mps 740 mmHg 71%
    08:00 +26°C° 0 mm 2 mps 739 mmHg 66%
    09:00 +27°C° 0 mm 3 mps 738 mmHg 61%
    10:00 +29°C° 0 mm 3 mps 738 mmHg 56%
    11:00 +29°C° 0.2 mm 3 mps 737 mmHg 56%
    12:00 +30°C° 0.2 mm 4 mps 737 mmHg 56%
    13:00 +30°C° 0.2 mm 4 mps 736 mmHg 56%
    14:00 +29°C° 0.7 mm 4 mps 735 mmHg 61%
    15:00 +28°C° 0.7 mm 5 mps 735 mmHg 65%
    16:00 +28°C° 0.7 mm 5 mps 735 mmHg 70%
    17:00 +26°C° 0.7 mm 5 mps 735 mmHg 75%
    18:00 +23°C° 0.7 mm 6 mps 735 mmHg 81%
    19:00 +21°C° 0.7 mm 6 mps 736 mmHg 86%
    20:00 +19°C° 0 mm 6 mps 736 mmHg 84%
    21:00 +16°C° 0 mm 6 mps 737 mmHg 82%
    22:00 +15°C° 0 mm 5 mps 738 mmHg 81%
    23:00 +13°C° 0 mm 5 mps 738 mmHg 79%

    22 June, Friday

    Time Temperature Precipitation Wind Pressure Humidity
    00:00 +12°C° 0 mm 4 mps 739 mmHg 78%
    01:00 +11°C° 0 mm 4 mps 739 mmHg 76%
    02:00 +11°C° 0 mm 4 mps 739 mmHg 75%
    03:00 +10°C° 0 mm 4 mps 739 mmHg 73%
    04:00 +10°C° 0 mm 4 mps 740 mmHg 72%
    05:00 +10°C° 0 mm 4 mps 740 mmHg 71%
    06:00 +10°C° 0 mm 5 mps 740 mmHg 69%
    07:00 +10°C° 0 mm 5 mps 740 mmHg 68%
    08:00 +12°C° 0 mm 5 mps 740 mmHg 64%
    09:00 +13°C° 0 mm 5 mps 740 mmHg 59%
    10:00 +14°C° 0 mm 5 mps 741 mmHg 54%
    11:00 +15°C° 0 mm 5 mps 740 mmHg 53%
    12:00 +15°C° 0 mm 5 mps 740 mmHg 51%
    13:00 +16°C° 0 mm 5 mps 740 mmHg 50%
    14:00 +16°C° 0 mm 5 mps 740 mmHg 51%
    15:00 +15°C° 0 mm 6 mps 740 mmHg 51%
    16:00 +15°C° 0 mm 6 mps 740 mmHg 51%
    17:00 +15°C° 0 mm 5 mps 740 mmHg 57%
    18:00 +14°C° 0 mm 4 mps 740 mmHg 62%
    19:00 +14°C° 0 mm 3 mps 740 mmHg 67%
    20:00 +12°C° 0 mm 3 mps 740 mmHg 71%
    21:00 +11°C° 0 mm 3 mps 740 mmHg 76%
    22:00 +10°C° 0 mm 4 mps 740 mmHg 80%
    23:00 +10°C° 0.2 mm 4 mps 740 mmHg 84%

    23 June, Saturday

    Time Temperature Precipitation Wind Pressure Humidity
    00:00 +10°C° 0.2 mm 4 mps 740 mmHg 88%
    01:00 +10°C° 0.2 mm 4 mps 740 mmHg 92%
    02:00 +10°C° 0.2 mm 4 mps 740 mmHg 92%
    03:00 +8°C° 0.2 mm 4 mps 740 mmHg 93%
    04:00 +8°C° 0.2 mm 4 mps 740 mmHg 93%
    05:00 +9°C° 0.1 mm 5 mps 740 mmHg 91%
    06:00 +10°C° 0.1 mm 5 mps 741 mmHg 88%
    07:00 +10°C° 0.1 mm 5 mps 741 mmHg 85%
    08:00 +13°C° 0.1 mm 5 mps 741 mmHg 78%
    09:00 +14°C° 0.1 mm 5 mps 741 mmHg 71%
    10:00 +15°C° 0.1 mm 5 mps 741 mmHg 63%
    11:00 +16°C° 0.1 mm 5 mps 741 mmHg 60%
    12:00 +17°C° 0.1 mm 5 mps 741 mmHg 57%
    13:00 +17°C° 0.1 mm 5 mps 741 mmHg 53%
    14:00 +17°C° 0.1 mm 5 mps 741 mmHg 53%
    15:00 +19°C° 0.1 mm 5 mps 741 mmHg 53%
    16:00 +19°C° 0.1 mm 5 mps 741 mmHg 53%
    17:00 +17°C° 0 mm 5 mps 741 mmHg 58%
    18:00 +17°C° 0 mm 4 mps 741 mmHg 63%
    19:00 +16°C° 0 mm 3 mps 742 mmHg 68%
    20:00 +13°C° 0 mm 3 mps 742 mmHg 71%
    21:00 +12°C° 0 mm 3 mps 742 mmHg 75%
    22:00 +10°C° 0 mm 3 mps 743 mmHg 78%
    23:00 +9°C° 0 mm 3 mps 743 mmHg 80%
    Show more